OpenBCM V1.08-5-g2f4a (Linux)

Packet Radio Mailbox

IZ3LSV

[San Dona' di P. JN]

 Login: GUEST





  
CX2SA  > KEPS     02.11.12 03:13l 515 Lines 13619 Bytes #999 (0) @ WW
BID : ORB12306.M
Read: GUEST
Subj: Orbital Elements  12306.MISC
Path: IZ3LSV<IR1UAW<IK1NHL<CX2SA
Sent: 121102/0211Z @:CX2SA.SAL.URY.SA #:3870 [Salto] FBB7.00e $:ORB12306.M
From: CX2SA@CX2SA.SAL.URY.SA
To  : KEPS@AMSAT


HR AMSAT ORBITAL ELEMENTS FOR MANNED AND MISCELLANEOUS SATELLITES
FROM WA5QGD FORT WORTH,TX November 1, 2012
Send SUBSCRIBE KEPS/UNSUBSCRIBE KEPS to majordomo@amsat.org only
BID: ORB12306.M
TO ALL RADIO AMATEURS BT

Satellite: HUBBLE
Catalog number: 20580
Epoch time:      12306.20386483
Element set:      99
Inclination:      028.4708 deg
RA of node:       326.6237 deg
Eccentricity:    0.0003321
Arg of perigee:   086.5276 deg
Mean anomaly:     273.5640 deg
Mean motion:   15.02980314 rev/day
Decay rate:      1.981e-05 rev/day^2
Epoch rev:            3535
Checksum:              283

Satellite: ISS
Catalog number: 25544
Epoch time:      12306.94219655
Element set:     568
Inclination:      051.6464 deg
RA of node:       157.1172 deg
Eccentricity:    0.0016378
Arg of perigee:   235.7342 deg
Mean anomaly:     265.5394 deg
Mean motion:   15.51143599 rev/day
Decay rate:     4.3520e-04 rev/day^2
Epoch rev:           79941
Checksum:              321

Satellite: CO-58
Catalog number: 28895
Epoch time:      12306.08371842
Element set:     316
Inclination:      097.8929 deg
RA of node:       166.1994 deg
Eccentricity:    0.0018732
Arg of perigee:   080.3535 deg
Mean anomaly:     279.9785 deg
Mean motion:   14.60820784 rev/day
Decay rate:       6.59e-06 rev/day^2
Epoch rev:           37364
Checksum:              365

Satellite: FALCON
Catalog number: 30776
Epoch time:      12306.89518225
Element set:     473
Inclination:      035.4368 deg
RA of node:       155.0862 deg
Eccentricity:    0.0001536
Arg of perigee:   230.6535 deg
Mean anomaly:     129.4048 deg
Mean motion:   15.08709937 rev/day
Decay rate:      4.763e-05 rev/day^2
Epoch rev:           31105
Checksum:              299

Satellite: MAST
Catalog number: 31126
Epoch time:      12306.42134475
Element set:     595
Inclination:      097.8746 deg
RA of node:       309.5113 deg
Eccentricity:    0.0094576
Arg of perigee:   043.2557 deg
Mean anomaly:     317.6040 deg
Mean motion:   14.54317227 rev/day
Decay rate:       8.38e-06 rev/day^2
Epoch rev:           29421
Checksum:              297

Satellite: CAPE1
Catalog number: 31130
Epoch time:      12306.01936989
Element set:     606
Inclination:      097.8850 deg
RA of node:       305.4571 deg
Eccentricity:    0.0102006
Arg of perigee:   058.6537 deg
Mean anomaly:     302.4558 deg
Mean motion:   14.53142356 rev/day
Decay rate:       6.15e-06 rev/day^2
Epoch rev:           29364
Checksum:              289

Satellite: COMPASS
Catalog number: 32787
Epoch time:      12306.12391204
Element set:     452
Inclination:      097.7848 deg
RA of node:       004.3524 deg
Eccentricity:    0.0014725
Arg of perigee:   336.3508 deg
Mean anomaly:     023.7042 deg
Mean motion:   14.84574317 rev/day
Decay rate:      2.061e-05 rev/day^2
Epoch rev:           24412
Checksum:              272

Satellite: AAUSAT2
Catalog number: 32788
Epoch time:      12305.85976127
Element set:     442
Inclination:      097.7847 deg
RA of node:       004.5579 deg
Eccentricity:    0.0013379
Arg of perigee:   338.3106 deg
Mean anomaly:     021.7501 deg
Mean motion:   14.84945488 rev/day
Decay rate:      2.366e-05 rev/day^2
Epoch rev:           24411
Checksum:              323

Satellite: DO-64
Catalog number: 32789
Epoch time:      12306.15780300
Element set:     460
Inclination:      097.7985 deg
RA of node:       007.4348 deg
Eccentricity:    0.0013928
Arg of perigee:   331.7117 deg
Mean anomaly:     028.3270 deg
Mean motion:   14.86846147 rev/day
Decay rate:      4.037e-05 rev/day^2
Epoch rev:           24422
Checksum:              310

Satellite: CO-66
Catalog number: 32791
Epoch time:      12306.17153016
Element set:     441
Inclination:      097.7837 deg
RA of node:       004.0211 deg
Eccentricity:    0.0014606
Arg of perigee:   337.0237 deg
Mean anomaly:     023.0310 deg
Mean motion:   14.83885144 rev/day
Decay rate:      1.182e-05 rev/day^2
Epoch rev:           24405
Checksum:              261

Satellite: RS-30
Catalog number: 32953
Epoch time:      12306.84388988
Element set:     285
Inclination:      082.5048 deg
RA of node:       209.5345 deg
Eccentricity:    0.0019895
Arg of perigee:   010.6879 deg
Mean anomaly:     349.4617 deg
Mean motion:   12.43029159 rev/day
Decay rate:        1.0e-07 rev/day^2
Epoch rev:           20166
Checksum:              323

Satellite: PHARMSAT
Catalog number: 35002
Epoch time:      12226.86484473
Element set:      78
Inclination:      040.4341 deg
RA of node:       050.6671 deg
Eccentricity:    0.0012079
Arg of perigee:   300.9773 deg
Mean anomaly:     059.0492 deg
Mean motion:   16.39309245 rev/day
Decay rate:   7.728342e-02 rev/day^2
Epoch rev:           18355
Checksum:              302

Satellite: METEOR-M
Catalog number: 35865
Epoch time:      12306.72218611
Element set:     923
Inclination:      098.6379 deg
RA of node:       358.3462 deg
Eccentricity:    0.0003078
Arg of perigee:   029.0306 deg
Mean anomaly:     331.1032 deg
Mean motion:   14.21873213 rev/day
Decay rate:        1.1e-07 rev/day^2
Epoch rev:           16214
Checksum:              264

Satellite: RS-38
Catalog number: 35869
Epoch time:      12306.72246881
Element set:     904
Inclination:      098.6329 deg
RA of node:       358.3176 deg
Eccentricity:    0.0005234
Arg of perigee:   022.8815 deg
Mean anomaly:     337.2592 deg
Mean motion:   14.22096228 rev/day
Decay rate:        7.1e-07 rev/day^2
Epoch rev:           16216
Checksum:              317

Satellite: JUGNU
Catalog number: 37839
Epoch time:      12305.90703678
Element set:     259
Inclination:      019.9581 deg
RA of node:       249.9545 deg
Eccentricity:    0.0018691
Arg of perigee:   288.8986 deg
Mean anomaly:     070.9385 deg
Mean motion:   14.12098496 rev/day
Decay rate:       6.20e-06 rev/day^2
Epoch rev:            5459
Checksum:              358

Satellite: SRMSAT
Catalog number: 37841
Epoch time:      12305.22797954
Element set:     261
Inclination:      019.9684 deg
RA of node:       261.6117 deg
Eccentricity:    0.0012413
Arg of perigee:   243.9209 deg
Mean anomaly:     115.9939 deg
Mean motion:   14.10175191 rev/day
Decay rate:       2.64e-06 rev/day^2
Epoch rev:            5441
Checksum:              291

Satellite: RAX-2
Catalog number: 37853
Epoch time:      12306.77598378
Element set:     329
Inclination:      101.7105 deg
RA of node:       049.6732 deg
Eccentricity:    0.0241290
Arg of perigee:   317.8178 deg
Mean anomaly:     040.4699 deg
Mean motion:   14.81228841 rev/day
Decay rate:      3.648e-05 rev/day^2
Epoch rev:            5475
Checksum:              329

Satellite: AUBIESAT
Catalog number: 37854
Epoch time:      12306.28561631
Element set:     328
Inclination:      101.7064 deg
RA of node:       049.3910 deg
Eccentricity:    0.0242993
Arg of perigee:   318.6800 deg
Mean anomaly:     039.6225 deg
Mean motion:   14.81719583 rev/day
Decay rate:      3.842e-05 rev/day^2
Epoch rev:            5468
Checksum:              306

Satellite: HRBE
Catalog number: 37855
Epoch time:      12306.24766839
Element set:     324
Inclination:      101.7078 deg
RA of node:       049.2424 deg
Eccentricity:    0.0244228
Arg of perigee:   319.0672 deg
Mean anomaly:     039.2424 deg
Mean motion:   14.81507655 rev/day
Decay rate:      3.420e-05 rev/day^2
Epoch rev:            5467
Checksum:              298

Satellite: RS-39
Catalog number: 38051
Epoch time:      12306.90246223
Element set:     850
Inclination:      051.6383 deg
RA of node:       222.4610 deg
Eccentricity:    0.0013791
Arg of perigee:   162.8796 deg
Mean anomaly:     314.2932 deg
Mean motion:   15.26996080 rev/day
Decay rate:     1.1726e-04 rev/day^2
Epoch rev:            4299
Checksum:              304

Satellite: E-STAR
Catalog number: 38079
Epoch time:      12306.57756466
Element set:     612
Inclination:      069.4810 deg
RA of node:       359.4855 deg
Eccentricity:    0.0696386
Arg of perigee:   073.0773 deg
Mean anomaly:     294.5443 deg
Mean motion:   14.25346157 rev/day
Decay rate:     2.7792e-04 rev/day^2
Epoch rev:            3708
Checksum:              348

Satellite: GOLIAT
Catalog number: 38085
Epoch time:      12306.25284700
Element set:     579
Inclination:      069.4836 deg
RA of node:       001.0379 deg
Eccentricity:    0.0702743
Arg of perigee:   073.9511 deg
Mean anomaly:     293.7635 deg
Mean motion:   14.24076182 rev/day
Decay rate:     2.9262e-04 rev/day^2
Epoch rev:            3701
Checksum:              299

Satellite: HORYU-2
Catalog number: 38340
Epoch time:      12306.85624717
Element set:     216
Inclination:      098.1898 deg
RA of node:       247.0006 deg
Eccentricity:    0.0011676
Arg of perigee:   253.9838 deg
Mean anomaly:     105.9975 deg
Mean motion:   14.70342946 rev/day
Decay rate:       7.78e-06 rev/day^2
Epoch rev:            2470
Checksum:              323

Satellite: RS-40
Catalog number: 38736
Epoch time:      12306.09794330
Element set:      94
Inclination:      082.4748 deg
RA of node:       297.3433 deg
Eccentricity:    0.0020062
Arg of perigee:   104.3231 deg
Mean anomaly:     256.0089 deg
Mean motion:   12.42647198 rev/day
Decay rate:        1.0e-07 rev/day^2
Epoch rev:            1191
Checksum:              277

Satellite: PROITERES
Catalog number: 38756
Epoch time:      12306.78745394
Element set:     188
Inclination:      098.2805 deg
RA of node:       013.4031 deg
Eccentricity:    0.0013724
Arg of perigee:   108.5375 deg
Mean anomaly:     251.7290 deg
Mean motion:   14.73949838 rev/day
Decay rate:       8.12e-06 rev/day^2
Epoch rev:             789
Checksum:              321

